Skip Page Navigation
NASA JPL Caltech
NASA Logo - Jet Propulsion Laboratory + View the NASA Portal
+ Center for Near-Earth Object Studies
JPL Home Earth Solar System Stars & Galaxies Technology
JPL Solar System Dynamics
BODIES ORBITS EPHEMERIDES TOOLS PHYSICAL DATA DISCOVERY FAQ SITE MAP
JPL Small-Body Database Browser
Search: [ help ]  
243482 (2009 TY14)
Classification: Main-belt Asteroid          SPK-ID: 2243482
Ephemeris | Orbit Diagram | Orbital Elements | Mission Design | Physical Parameters | Discovery Circumstances | Close-Approach Data ]

[ show orbit diagram ]
Orbital Elements at Epoch 2459000.5 (2020-May-31.0) TDB
Reference: JPL 14 (heliocentric ecliptic J2000)
 Element Value Uncertainty (1-sigma)   Units 
e .1242058090702672 5.2132e-08  
a 3.163870497436522 3.7539e-08 au
q 2.77089940250887 1.8045e-07 au
i 2.687869741524586 6.6144e-06 deg
node 132.8775273107281 0.00012494 deg
peri 280.0341005103775 0.00013095 deg
M 302.6905870959554 3.2865e-05 deg
tp 2459327.727604979872
(2021-Apr-23.22760498)
0.00018636 TDB
period 2055.542568373442
5.63
3.6583e-05
1.002e-07
d
yr
n .1751362416614262 3.1169e-09 deg/d
Q 3.556841592364174 4.2201e-08 au
  Orbit Determination Parameters
   # obs. used (total)      260  
   data-arc span      6239 days (17.08 yr)  
   first obs. used      2003-09-18  
   last obs. used      2020-10-17  
   planetary ephem.      DE431  
   SB-pert. ephem.      SB431-N16  
   condition code      0  
   norm. resid. RMS      .54368  
   source      ORB  
   producer      Otto Matic  
   solution date      2020-Nov-12 00:56:15  

Additional Information
 Earth MOID = 1.78366 au 
 Jupiter MOID = 1.79495 au 
 T_jup = 3.190 
[ show covariance matrix ]

Ephemeris | Orbit Diagram | Orbital Elements | Mission Design | Physical Parameters | Discovery Circumstances | Close-Approach Data ]

Physical Parameter Table
Parameter Symbol Value Units Sigma Reference Notes
absolute magnitude H 15.8   n/a MPO446287  
diameter diameter 3.391 km 0.516 urn:nasa:pds:neowise_diameters_albedos::2.0[mainbelt] (http://adsabs.harvard.edu/abs/2011ApJ...741...68M)  
geometric albedo albedo 0.074   0.018 urn:nasa:pds:neowise_diameters_albedos::2.0[mainbelt] (http://adsabs.harvard.edu/abs/2011ApJ...741...68M)  

243482 (2009 TY14)          Discovered 2009-Oct-12 by La Sagra at La Sagra
Reference: 20100626/Numbers.arcLast Updated: 2010-06-28

[ hide close-approach data ]
Close-Approach Data   ...sorted by Date/Time (TDB)
Date/Time (TDB) Time Uncertainty
(days_HH:MM)
Body Nominal Distance (au) Minimum Distance (au) Maximum Distance (au) V-relative (km/s) V-infinity (km/s) JD (TDB) Time Uncertainty (minutes) Semi-major axis (km) Semi-minor axis (km) range-LOV angle (deg) N-sigma BP Orbit Ref. Reference Modified
1901-Apr-21 12:55 00:06 Jupiter 1.83614228105624 1.83614144636258 1.83614311574948 2.51554692799013 2.32494416399242 2415496.037880232 5.85447703335869 93.7379651538398 14.0367239259219 -84.8004522589613 1251919.10464008 T 14 CATAB v2.0f-lin.ifort 2020-Nov-12 00:56:16 2020-Nov-12 00:56
1911-Dec-04 07:07 00:05 Jupiter 1.82381880171993 1.8238180427996 1.82381956064182 2.17227329368623 1.94677328709709 2419374.796245958 5.11914171263181 151.27459734354 12.2185282013355 85.9526271754692 2312256.93083612 T 14 CATAB v2.0f-lin.ifort 2020-Nov-12 00:56:16 2020-Nov-12 00:56
1922-Jul-25 00:11 00:04 Jupiter 1.94002284934922 1.940021630782 1.94002406792195 2.52695637589104 2.34782872498396 2423260.507669962 4.42426199435254 212.872370178529 14.6088649427125 84.3617418327824 2115968.06512893 T 14 CATAB v2.0f-lin.ifort 2020-Nov-12 00:56:16 2020-Nov-12 00:56
1997-Apr-11 08:34 00:01 Jupiter 1.92089243986536 1.92089157922156 1.92089330050894 3.24676937240656 3.10799069455843 2450549.857157660 1.06963660742121 66.0681846965282 28.9403280993084 82.954808055262 1627295.4456771 T 14 CATAB v2.0f-lin.ifort 2020-Nov-12 00:56:16 2020-Nov-12 00:56
2007-Nov-18 06:39 < 00:01 Jupiter 1.81107664681051 1.81107598767416 1.81107730594654 2.35079218315891 2.14262544587526 2454422.776991302 0.632827072655022 75.7689807328669 6.29043248235409 -87.6176604248524 1721783.35879726 T 14 CATAB v2.0f-lin.ifort 2020-Nov-12 00:56:16 2020-Nov-12 00:56
2018-Jul-03 03:31 < 00:01 Jupiter 1.83922703455059 1.83922654915394 1.83922751994702 2.19877897951735 1.9782733440114 2458302.646605349 0.640625125655992 76.8494461609114 7.63213893428757 -87.6572228582416 2349620.50517294 T 14 CATAB v2.0f-lin.ifort 2020-Nov-12 00:56:16 2020-Nov-12 00:56
2029-Feb-21 00:38 00:01 Jupiter 1.98497573318178 1.98497487785748 1.98497658850619 2.7137354615675 2.5516517262996 2462188.526493954 1.10029494104518 84.3331007510874 19.6838594851771 79.5687500891295 2020616.64974994 T 14 CATAB v2.0f-lin.ifort 2020-Nov-12 00:56:16 2020-Nov-12 00:56
2103-Nov-06 05:54 00:05 Jupiter 1.87268675915607 1.87268535374789 1.87268816456595 2.94766958362668 2.79000882644811 2489473.745712106 4.62431749610211 150.966561115988 24.1997773225738 80.9787263586485 1368150.91609406 T 14 CATAB v2.0f-lin.ifort 2020-Nov-12 00:56:16 2020-Nov-12 00:56
2114-Jun-14 04:13 00:05 Jupiter 1.79634910620056 1.79634852105588 1.79634969134483 2.23272834000864 2.01047928358924 2493346.675980620 5.19211483750345 79.0983841009779 29.1575937193266 -87.4278852296044 1266333.33344439 T 14 CATAB v2.0f-lin.ifort 2020-Nov-12 00:56:16 2020-Nov-12 00:56
2125-Jan-26 14:18 00:06 Jupiter 1.86675959620532 1.86675831579299 1.86676087662422 2.27721853544858 2.06839196279432 2497226.095988032 5.74216405273974 225.649345825024 13.9796203616362 83.1978727589145 2234678.31880311 T 14 CATAB v2.0f-lin.ifort 2020-Nov-12 00:56:16 2020-Nov-12 00:56
2199-Oct-25 08:04 00:09 Jupiter 1.98103510294736 1.98103222032217 1.98103798560318 3.83942889987363 3.72640349711049 2524525.835957270 9.39357262856199 436.707721132039 32.0410778870243 75.98663747574 1790054.42962179 T 14 CATAB v2.0f-lin.ifort 2020-Nov-12 00:56:16 2020-Nov-12 00:56

Alternate Designations
 2009 TY14 = 2006 EB74 = 2010 AY67 
Ephemeris | Orbit Diagram | Orbital Elements | Mission Design | Physical Parameters | Discovery Circumstances | Close-Approach Data ]
ABOUT SSD CREDITS/AWARDS PRIVACY/COPYRIGHT GLOSSARY LINKS
FirstGov 2020-Nov-24 02:06 UT
(server date/time)  
NASA Home Page
Site Manager:   Ryan S. Park
Webmaster  Alan B. Chamberlin